Weather History for Doha, Qatar

Change the Weather History Date:

Monday, October 14, 2013

  Actual Average Record
Temperature  
Mean Temperature 84 °F -  
Max Temperature 94 °F 90 °F 101 °F (2012)
Min Temperature 73 °F 71 °F 73 °F (2013)
Cooling Degree Days 18    
Growing Degree Days 34 (Base 50)    
Moisture  
Dew Point 58 °F    
Average Humidity 44    
Maximum Humidity 74    
Minimum Humidity 10    
Precipitation  
Precipitation 0.00 in 0.00 in - ()
Sea Level Pressure  
Sea Level Pressure 29.88 in    
Wind  
Wind Speed 4 mph ()    
Max Wind Speed 18 mph    
Max Gust Speed -    
Visibility 6.3 miles    
Events      
Averages and records for this station are not official NWS values.
T = Trace of Precipitation, MM = Missing Value Source: Averaged Metar Reports

Daily Weather History Graph

Daily Weather History Graph

Search for Another Location

Airport:

Trip Planner

Search our weather history database for the weather conditions in past years. The results will help you decide how hot, cold, wet, or windy it might be!

Date:

Astronomy

Oct. 14, 2013 Rise Set
Actual Time 5:31 AM AST 5:07 PM AST
Civil Twilight 5:08 AM AST 5:30 PM AST
Nautical Twilight 4:41 AM AST 5:57 PM AST
Astronomical Twilight 4:15 AM AST 6:23 PM AST
Moon 1:57 PM AST (10/14) 12:50 AM AST (10/14)
Length of Visible Light 12h 22m
Length of Day
11h 35m
Waxing Gibbous, 76% of the Moon is Illuminated
Oct 14
Waxing Gibbous
Oct 19
Full
Oct 27
Last Quarter
Nov 3
New
Nov 10
First Quarter

Hourly Weather History & Observations

Time (AST) Temp. Heat Index Dew Point Humidity Pressure Visibility Wind Dir Wind Speed Gust Speed Precip Events Conditions
12:00 AM 78.8 °F - 64.4 °F 61% 29.83 in - Calm Calm - N/A   Clear
12:30 AM 78.8 °F - 62.6 °F 57% 29.83 in - Calm Calm - N/A   Clear
1:00 AM 78.8 °F - 55.4 °F 44% 29.83 in - SW 3.5 mph - N/A   Clear
1:30 AM 77.0 °F - 57.2 °F 50% 29.83 in - WSW 3.5 mph - N/A   Clear
2:00 AM 77.0 °F - 57.2 °F 50% 29.83 in - SW 3.5 mph - N/A   Clear
2:30 AM 77.0 °F - 55.4 °F 47% 29.83 in - WSW 3.5 mph - N/A   Clear
3:00 AM 76 °F - 55 °F 38% 29.84 in 7 mi WSW 4.6 mph - -  
3:00 AM 77.0 °F - 55.4 °F 47% 29.83 in - WSW 4.6 mph - N/A   Clear
3:30 AM 75.2 °F - 53.6 °F 47% 29.83 in - WSW 3.5 mph - N/A   Clear
4:00 AM 75.2 °F - 55.4 °F 50% 29.83 in - WSW 4.6 mph - N/A   Clear
4:30 AM 75.2 °F - 55.4 °F 50% 29.83 in - WSW 4.6 mph - N/A   Clear
5:00 AM 75.2 °F - 53.6 °F 47% 29.86 in - WSW 4.6 mph - N/A   Clear
5:30 AM 73.4 °F - 53.6 °F 50% 29.86 in 5.6 mi WSW 4.6 mph - N/A   Unknown
6:00 AM 73.4 °F - 55.4 °F 53% 29.86 in 5.6 mi SW 4.6 mph - N/A   Unknown
6:30 AM 75.2 °F - 57.2 °F 53% 29.86 in 5.6 mi WSW 3.5 mph - N/A   Unknown
7:00 AM 77.0 °F - 59.0 °F 54% 29.89 in 5.6 mi WSW 3.5 mph - N/A   Unknown
7:30 AM 80.6 °F 80.8 °F 57.2 °F 45% 29.92 in 5.6 mi WSW 4.6 mph - N/A   Unknown
8:00 AM 82.4 °F 82.0 °F 57.2 °F 42% 29.92 in 5.6 mi WSW 4.6 mph - N/A   Unknown
8:30 AM 84.2 °F 83.8 °F 59.0 °F 42% 29.92 in 5.6 mi WSW 4.6 mph - N/A   Unknown
9:00 AM 85 °F - 58 °F 30% 29.94 in 6 mi WSW 4.6 mph - -   Smoke
9:00 AM 86.0 °F 85.4 °F 59.0 °F 40% 29.92 in 5.6 mi WSW 4.6 mph - N/A   Unknown
9:30 AM 87.8 °F 86.5 °F 57.2 °F 35% 29.92 in - Variable 2.3 mph - N/A   Clear
10:00 AM 89.6 °F 87.7 °F 55.4 °F 31% 29.92 in - Variable 2.3 mph - N/A   Clear
10:30 AM 91.4 °F 89.1 °F 53.6 °F 28% 29.92 in - WSW 4.6 mph - N/A   Clear
11:00 AM 93.2 °F - 51.8 °F 24% 29.92 in - WNW 3.5 mph - N/A   Clear
12:00 PM 93.2 °F - 42.8 °F 17% 29.89 in - North 6.9 mph - N/A   Clear
12:30 PM 93.2 °F - 44.6 °F 19% 29.89 in - North 10.4 mph - N/A   Clear
1:00 PM 93.2 °F - 44.6 °F 19% 29.89 in - NNE 10.4 mph - N/A   Clear
2:00 PM 93.2 °F - 44.6 °F 19% 29.86 in - NNE 9.2 mph - N/A   Clear
2:30 PM 93.2 °F - 44.6 °F 19% 29.86 in - North 10.4 mph - N/A   Clear
3:00 PM 92 °F - 42 °F 10% 29.87 in 9 mi NNE 17.9 mph - -  
3:00 PM 93.2 °F - 42.8 °F 17% 29.86 in - NNE 9.2 mph - N/A   Clear
3:30 PM 91.4 °F - 50.0 °F 24% 29.86 in - NE 10.4 mph - N/A   Clear
4:00 PM 89.6 °F - 48.2 °F 24% 29.86 in - NE 10.4 mph - N/A   Clear
4:30 PM 87.8 °F - 51.8 °F 29% 29.86 in - NE 9.2 mph - N/A   Clear
5:00 PM 86.0 °F 85.4 °F 59.0 °F 40% 29.86 in - NE 8.1 mph - N/A   Clear
5:30 PM 84.2 °F 84.4 °F 60.8 °F 45% 29.86 in - NNE 6.9 mph - N/A   Clear
6:00 PM 84.2 °F 85.6 °F 64.4 °F 51% 29.86 in - NNE 5.8 mph - N/A   Clear
6:30 PM 84.2 °F 86.6 °F 66.2 °F 55% 29.89 in - NNE 5.8 mph - N/A   Clear
7:00 PM 82.4 °F 85.4 °F 68.0 °F 62% 29.89 in - NNE 3.5 mph - N/A   Clear
7:30 PM 82.4 °F 86.3 °F 69.8 °F 66% 29.92 in - NNE 4.6 mph - N/A   Clear
8:00 PM 82.4 °F 86.3 °F 69.8 °F 66% 29.92 in - Variable 3.5 mph - N/A   Clear
8:30 PM 82.4 °F 86.3 °F 69.8 °F 66% 29.92 in - Variable 2.3 mph - N/A   Clear
9:00 PM 82 °F - 71 °F 61% 29.92 in 9 mi 2.3 mph - -  
9:00 PM 82.4 °F 87.2 °F 71.6 °F 70% 29.92 in - Variable 2.3 mph - N/A   Clear
9:30 PM 80.6 °F 84.6 °F 71.6 °F 74% 29.89 in - Calm Calm - N/A   Clear
10:00 PM 80.6 °F 83.9 °F 69.8 °F 70% 29.89 in - Calm Calm - N/A   Clear
11:00 PM 80.6 °F 83.9 °F 69.8 °F 70% 29.89 in - Calm Calm - N/A   Clear
11:30 PM 80.6 °F 83.9 °F 69.8 °F 70% 29.89 in - Variable 2.3 mph - N/A   Clear